EW6341 Belize City BZ current weather conditions

sailwx.info

Wind from 098 at 4 knots gusting 7

Air temperature 28.9° C
Dewpoint 26.1° C

Last reported at 2020-Aug-10 08:07 UTC.
Time now 2020-Aug-10 08:36 UTC

Location: N 17°30' W 088°14'.
View on Google Maps.

See reports from other nearby stations

  
Tides and Currents Weather Stations Pressure Air Temp Water Temp Dewpoint Dewpoint Depression Visibility Wind Speed Wind Dir Waves Ship Positions
date/time (UTC)wind fromknots sea level pressurealtimeterstation pressurevisibilityair tempwater tempwave heightnotes
2020-Aug-10 08:07 098 4 gusting 7 28.9
2020-Aug-10 08:02 078 5 gusting 9 28.9
2020-Aug-10 07:57 082 5 gusting 12 28.9
2020-Aug-10 07:52 065 5 gusting 12 28.9
2020-Aug-10 07:47 115 6 gusting 12 28.9
2020-Aug-10 07:42 078 5 gusting 12 28.9
2020-Aug-10 07:37 078 5 gusting 8 28.9
2020-Aug-10 07:32 089 5 gusting 8 28.9
2020-Aug-10 07:27 068 5 gusting 9 28.9
2020-Aug-10 07:22 074 4 gusting 9 28.9
2020-Aug-10 07:17 060 4 gusting 11 28.9
2020-Aug-10 07:12 119 5 gusting 11 28.9
2020-Aug-10 07:07 089 4 gusting 7 28.9
2020-Aug-10 07:02 099 5 gusting 8 28.9
2020-Aug-10 06:57 060 6 gusting 13 28.9
2020-Aug-10 06:51 123 5 gusting 13 28.9
2020-Aug-10 06:46 059 5 gusting 11 28.9
2020-Aug-10 06:41 096 6 gusting 11 28.9
2020-Aug-10 06:36 074 5 gusting 11 28.9
2020-Aug-10 06:31 082 5 gusting 11 28.9
2020-Aug-10 06:26 063 4 gusting 9 28.9
2020-Aug-10 06:21 102 5 gusting 11 28.9
2020-Aug-10 06:16 087 4 gusting 11 28.9
2020-Aug-10 06:11 131 4 gusting 8 28.9
2020-Aug-10 06:06 116 4 gusting 9 28.9
2020-Aug-10 06:01 082 5 gusting 13 28.9
2020-Aug-10 05:56 058 5 gusting 13 28.9
2020-Aug-10 05:51 066 5 gusting 11 28.9
2020-Aug-10 05:46 113 5 gusting 10 28.9
2020-Aug-10 05:41 100 5 gusting 10 28.9
2020-Aug-10 05:36 113 5 gusting 12 28.9
2020-Aug-10 05:31 099 6 gusting 12 28.9
2020-Aug-10 05:26 068 6 gusting 14 28.9
2020-Aug-10 05:21 089 6 gusting 14 29.4
2020-Aug-10 05:16 095 6 gusting 13 28.9
2020-Aug-10 05:11 079 6 gusting 13 28.9
2020-Aug-10 05:06 102 6 gusting 12 28.9
2020-Aug-10 05:01 101 5 gusting 12 28.9
2020-Aug-10 04:56 047 4 gusting 10 28.9
2020-Aug-10 04:51 117 6 gusting 13 28.9
2020-Aug-10 04:46 118 6 gusting 13 28.9
2020-Aug-10 04:41 122 6 gusting 13 28.9
2020-Aug-10 04:36 055 5 gusting 9 28.9
2020-Aug-10 04:31 091 5 gusting 11 28.9
2020-Aug-10 04:26 118 5 gusting 11 28.9
2020-Aug-10 04:21 072 5 gusting 12 28.9
2020-Aug-10 04:16 115 6 gusting 12 28.9
2020-Aug-10 04:11 088 6 gusting 15 29.4
2020-Aug-10 04:06 113 6 gusting 15 29.4
2020-Aug-10 04:01 071 6 gusting 13 29.4
2020-Aug-10 03:56 083 6 gusting 13 29.4
2020-Aug-10 03:51 097 5 gusting 11 28.9
2020-Aug-10 03:46 104 6 gusting 13 28.9
2020-Aug-10 03:41 051 6 gusting 13 29.4
2020-Aug-10 03:36 059 5 gusting 12 29.4
2020-Aug-10 03:31 057 6 gusting 11 29.4
2020-Aug-10 03:26 081 6 gusting 11 28.9
2020-Aug-10 03:21 072 6 gusting 12 28.9
2020-Aug-10 03:16 064 5 gusting 12 28.9
2020-Aug-10 03:11 101 5 gusting 10 28.9
2020-Aug-10 03:06 109 6 gusting 14 28.9
2020-Aug-10 03:01 110 6 gusting 14 28.9
2020-Aug-10 02:56 109 6 gusting 13 28.9
2020-Aug-10 02:51 086 5 gusting 13 28.9
2020-Aug-10 02:46 091 6 gusting 12 28.9
2020-Aug-10 02:41 115 6 gusting 11 28.9
2020-Aug-10 02:36 078 6 gusting 13 28.9
2020-Aug-10 02:31 068 5 gusting 13 28.9
2020-Aug-10 02:26 084 4 gusting 9 28.9
2020-Aug-10 02:21 122 3 gusting 9 28.9
2020-Aug-10 02:16 105 3 gusting 9 28.9
2020-Aug-10 02:11 134 4 gusting 12 28.9
2020-Aug-10 02:06 134 5 gusting 12 29.4
2020-Aug-10 02:01 105 4 gusting 9 28.9
2020-Aug-10 01:56 113 5 gusting 9 29.4
2020-Aug-10 01:51 140 4 gusting 9 29.4
2020-Aug-10 01:46 083 4 gusting 11 29.4
2020-Aug-10 01:41 111 5 gusting 11 29.4
2020-Aug-10 01:36 106 4 gusting 10 29.4
2020-Aug-10 01:30 095 6 gusting 12 29.4
2020-Aug-10 01:25 080 6 gusting 13 29.4
2020-Aug-10 01:20 082 5 gusting 13 29.4
2020-Aug-10 01:15 098 4 gusting 9 29.4
2020-Aug-10 01:10 115 4 gusting 9 29.4
2020-Aug-10 01:05 081 5 gusting 12 29.4
2020-Aug-10 01:00 127 5 gusting 12 29.4
2020-Aug-10 00:55 107 6 gusting 12 29.4
2020-Aug-10 00:50 109 6 gusting 11 29.4
2020-Aug-10 00:45 120 6 gusting 10 29.4
2020-Aug-10 00:40 101 6 gusting 13 29.4
2020-Aug-10 00:35 110 6 gusting 13 29.4
2020-Aug-10 00:30 110 6 gusting 15 29.4
2020-Aug-10 00:25 102 7 gusting 15 29.4
2020-Aug-10 00:20 107 6 gusting 13 29.4
2020-Aug-10 00:15 076 6 gusting 13 29.4
2020-Aug-10 00:10 074 6 gusting 14 29.4
2020-Aug-10 00:05 070 6 gusting 14 29.4
2020-Aug-10 00:00 111 4 gusting 12 29.4
2020-Aug-09 23:55 118 4 gusting 9 29.4
2020-Aug-09 23:50 119 4 gusting 9 29.4
2020-Aug-09 23:45 106 4 gusting 8 29.4
2020-Aug-09 23:40 082 3 gusting 8 29.4
2020-Aug-09 23:35 093 3 gusting 6 29.4
2020-Aug-09 23:30 133 3 gusting 6 29.4
2020-Aug-09 23:25 120 3 gusting 6 29.4
2020-Aug-09 23:20 115 2 gusting 6 29.4
2020-Aug-09 23:15 103 2 gusting 7 29.4
2020-Aug-09 23:10 110 3 gusting 7 29.4
2020-Aug-09 23:05 079 3 gusting 6 29.4
2020-Aug-09 23:00 113 4 gusting 8 28.9
2020-Aug-09 22:55 111 5 gusting 8 28.9
2020-Aug-09 22:50 084 5 gusting 10 28.9
2020-Aug-09 22:45 072 6 gusting 10 28.9
2020-Aug-09 22:40 030 6 gusting 13 28.9
2020-Aug-09 22:35 085 8 gusting 15 28.3
2020-Aug-09 22:30 072 7 gusting 15 28.9
2020-Aug-09 22:25 071 6 gusting 13 29.4
2020-Aug-09 22:20 131 6 gusting 9 29.4
2020-Aug-09 22:15 064 5 gusting 9 29.4
2020-Aug-09 22:10 118 4 gusting 8 29.4
2020-Aug-09 22:00 061 5 gusting 10 29.4
2020-Aug-09 21:55 022 3 gusting 10 29.4
2020-Aug-09 21:50 079 3 gusting 10 29.4
2020-Aug-09 21:45 129 2 gusting 6 29.4
2020-Aug-09 21:40 119 2 gusting 5 28.9
2020-Aug-09 21:35 140 2 gusting 5 28.9
2020-Aug-09 21:30 122 3 gusting 5 28.9
2020-Aug-09 21:25 112 3 gusting 6 28.3
2020-Aug-09 21:20 126 3 gusting 6 28.3
2020-Aug-09 21:15 119 2 gusting 6 28.3
2020-Aug-09 21:10 120 3 gusting 7 27.8
2020-Aug-09 21:05 126 4 gusting 7 27.8
2020-Aug-09 21:00 134 4 gusting 6 27.2
2020-Aug-09 20:54 111 3 gusting 7 27.2
2020-Aug-09 20:50 131 3 gusting 7 27.2
2020-Aug-09 20:44 089 3 gusting 6 26.7
2020-Aug-09 20:39 087 3 gusting 6 26.1
2020-Aug-09 20:34 115 3 gusting 6 26.1
2020-Aug-09 20:29 128 3 gusting 6 25.6
2020-Aug-09 20:24 131 2 gusting 5 26.1
2020-Aug-09 20:19 139 3 gusting 5 25.6
2020-Aug-09 20:14 101 3 gusting 13 25.6
2020-Aug-09 20:09 136 6 gusting 13 25.6
2020-Aug-09 20:04 109 6 gusting 15 26.7
2020-Aug-09 19:59 081 6 gusting 15 27.8
2020-Aug-09 19:54 116 4 gusting 7 28.9
2020-Aug-09 19:49 087 4 gusting 10 28.3
2020-Aug-09 19:44 086 4 gusting 10 27.8
2020-Aug-09 19:39 103 5 gusting 10 27.8
2020-Aug-09 19:34 133 5 gusting 10 27.8
2020-Aug-09 19:29 091 6 gusting 13 28.3
2020-Aug-09 19:24 090 6 gusting 13 28.3
2020-Aug-09 19:19 100 6 gusting 12 30.0
2020-Aug-09 19:14 117 5 gusting 10 31.1
2020-Aug-09 19:09 065 6 gusting 12 31.7
2020-Aug-09 19:04 077 6 gusting 12 31.1
2020-Aug-09 18:59 122 5 gusting 10 31.1
2020-Aug-09 18:54 069 5 gusting 11 31.1
2020-Aug-09 18:49 093 5 gusting 11 31.1
2020-Aug-09 18:44 105 3 gusting 7 31.1
2020-Aug-09 18:39 061 3 gusting 7 30.6
2020-Aug-09 18:34 134 3 gusting 6 31.1
2020-Aug-09 18:29 105 1 gusting 6 31.7
2020-Aug-09 18:24 167 2 gusting 6 31.1
2020-Aug-09 18:19 143 3 gusting 6 30.6
2020-Aug-09 18:14 135 2 gusting 6 31.1
2020-Aug-09 18:09 140 2 gusting 6 31.1
2020-Aug-09 18:04 143 3 gusting 6 30.6
2020-Aug-09 17:59 151 3 gusting 6 30.6
2020-Aug-09 17:54 101 4 gusting 6 30.6
2020-Aug-09 17:49 124 3 gusting 7 30.6
2020-Aug-09 17:44 151 3 gusting 7 30.6
2020-Aug-09 17:39 133 3 gusting 6 30.6
2020-Aug-09 17:34 131 3 gusting 6 30.6
2020-Aug-09 17:29 149 3 gusting 6 30.6
2020-Aug-09 17:24 138 2 gusting 6 30.6
2020-Aug-09 17:19 137 2 gusting 6 30.6
2020-Aug-09 17:14 112 2 gusting 6 30.0
2020-Aug-09 17:09 136 2 gusting 6 30.6
2020-Aug-09 17:04 140 2 gusting 4 30.0
2020-Aug-09 16:59 136 2 gusting 5 30.0
2020-Aug-09 16:54 153 3 gusting 7 29.4
2020-Aug-09 16:49 141 3 gusting 7 29.4
2020-Aug-09 16:44 117 3 gusting 6 28.9
2020-Aug-09 16:39 127 5 gusting 10 28.9
2020-Aug-09 16:34 122 5 gusting 10 28.3
2020-Aug-09 16:29 135 4 gusting 8 28.3
2020-Aug-09 16:24 136 5 gusting 9 28.3
2020-Aug-09 16:19 126 4 gusting 9 28.3
2020-Aug-09 16:14 103 3 gusting 9 29.4
2020-Aug-09 16:09 141 4 gusting 8 30.0
2020-Aug-09 16:04 118 4 gusting 8 30.6
2020-Aug-09 15:59 131 5 gusting 11 30.6
2020-Aug-09 15:54 098 6 gusting 11 30.6
2020-Aug-09 15:49 117 6 gusting 11 30.6
2020-Aug-09 15:44 136 6 gusting 9 30.6
2020-Aug-09 15:39 089 5 gusting 8 30.6
2020-Aug-09 15:33 110 4 gusting 8 30.6
2020-Aug-09 15:28 110 5 gusting 8 30.0
2020-Aug-09 15:23 117 5 gusting 9 30.0
2020-Aug-09 15:18 115 5 gusting 9 30.0
2020-Aug-09 15:13 115 4 gusting 7 30.0
2020-Aug-09 15:08 107 5 gusting 8 30.0
2020-Aug-09 15:03 113 6 gusting 9 29.4
2020-Aug-09 14:58 153 6 gusting 11 29.4
2020-Aug-09 14:53 120 6 gusting 11 29.4
2020-Aug-09 14:48 112 4 gusting 10 28.9
2020-Aug-09 14:43 126 4 gusting 9 28.9
2020-Aug-09 14:38 101 5 gusting 10 28.9
2020-Aug-09 14:33 109 6 gusting 10 28.9
2020-Aug-09 14:28 112 5 gusting 9 28.9
2020-Aug-09 14:23 103 5 gusting 11 28.9
2020-Aug-09 14:18 127 5 gusting 11 28.9
2020-Aug-09 14:13 120 4 gusting 8 28.9
2020-Aug-09 14:08 130 4 gusting 8 28.3
2020-Aug-09 14:03 131 4 gusting 10 28.3
2020-Aug-09 13:58 143 4 gusting 10 28.3
2020-Aug-09 13:53 121 2 gusting 9 27.8
2020-Aug-09 13:48 142 3 gusting 8 27.8
2020-Aug-09 13:43 121 4 gusting 8 27.8
2020-Aug-09 13:38 032 6 gusting 14 27.8
2020-Aug-09 13:33 102 6 gusting 14 28.3
2020-Aug-09 13:28 139 4 gusting 6 28.9
2020-Aug-09 13:23 116 4 gusting 8 28.9
2020-Aug-09 13:18 120 5 gusting 9 28.9
2020-Aug-09 13:13 131 5 gusting 9 28.9
2020-Aug-09 13:08 107 5 gusting 10 28.9
2020-Aug-09 13:03 116 5 gusting 10 28.9
2020-Aug-09 12:58 117 4 gusting 7 28.9
2020-Aug-09 12:53 100 2 gusting 7 28.9
2020-Aug-09 12:48 127 2 gusting 6 28.9
2020-Aug-09 12:43 116 2 gusting 6 28.9
2020-Aug-09 12:38 132 2 gusting 6 28.3
2020-Aug-09 12:33 135 2 gusting 5 28.3
2020-Aug-09 12:28 122 2 gusting 5 28.3
2020-Aug-09 12:23 122 3 gusting 6 27.8
2020-Aug-09 12:18 120 3 gusting 6 27.8
2020-Aug-09 12:13 132 3 gusting 6 27.8
2020-Aug-09 12:08 125 4 gusting 7 27.8
2020-Aug-09 12:03 134 4 gusting 7 27.8
2020-Aug-09 11:58 122 4 gusting 7 27.8
2020-Aug-09 11:53 115 4 gusting 8 27.8
2020-Aug-09 11:48 117 3 gusting 8 27.8
2020-Aug-09 11:43 117 3 gusting 8 27.8
2020-Aug-09 11:38 117 3 gusting 8 27.8
2020-Aug-09 11:33 129 3 gusting 6 27.8
2020-Aug-09 11:28 122 4 gusting 7 27.8
2020-Aug-09 11:23 113 4 gusting 7 27.8
2020-Aug-09 11:18 119 4 gusting 8 27.8
2020-Aug-09 11:13 131 5 gusting 9 27.8
2020-Aug-09 11:08 123 5 gusting 14 27.8
2020-Aug-09 11:03 110 6 gusting 14 27.8
2020-Aug-09 10:57 117 5 gusting 13 27.8
2020-Aug-09 10:52 119 4 gusting 6 27.8
2020-Aug-09 10:47 122 4 gusting 8 27.8
2020-Aug-09 10:42 107 4 gusting 8 27.8
2020-Aug-09 10:37 111 4 gusting 9 27.8
2020-Aug-09 10:32 136 5 gusting 9 27.8
2020-Aug-09 10:27 122 4 gusting 9 27.8
2020-Aug-09 10:22 120 4 gusting 6 27.8
2020-Aug-09 10:17 102 5 gusting 9 27.8
2020-Aug-09 10:12 122 5 gusting 9 27.8
2020-Aug-09 10:07 106 6 gusting 11 27.8
2020-Aug-09 10:02 105 5 gusting 11 28.3
2020-Aug-09 09:57 091 4 gusting 6 28.3
2020-Aug-09 09:52 112 3 gusting 7 28.3
2020-Aug-09 09:47 103 4 gusting 7 28.3
2020-Aug-09 09:42 071 4 gusting 9 28.3
2020-Aug-09 09:37 105 4 gusting 9 28.3
2020-Aug-09 09:32 122 4 gusting 8 28.3
2020-Aug-09 09:27 122 2 gusting 6 28.3
2020-Aug-09 09:22 108 2 gusting 5 28.3
2020-Aug-09 09:17 130 2 gusting 6 28.3
2020-Aug-09 09:12 129 1 gusting 6 28.3
2020-Aug-09 09:07 120 1 gusting 6 28.3
2020-Aug-09 09:02 115 3 gusting 6 28.3
2020-Aug-09 08:57 102 3 gusting 6 28.3
2020-Aug-09 08:52 127 3 gusting 7 28.3
2020-Aug-09 08:47 093 3 gusting 7 28.3
2020-Aug-09 08:42 115 3 gusting 6 28.3
2020-Aug-09 08:37 131 2 gusting 6 28.3
2020-Aug-09 08:32 115 2 gusting 6 28.3
2020-Aug-09 08:27 101 2 gusting 7 28.3
2020-Aug-09 08:22 127 3 gusting 7 28.3
2020-Aug-09 08:17 101 3 gusting 8 28.3
2020-Aug-09 08:12 137 2 gusting 8 28.3
2020-Aug-09 08:07 094 3 gusting 8 28.3
2020-Aug-09 08:02 129 4 gusting 8 28.3
2020-Aug-09 07:57 098 4 gusting 11 28.3
2020-Aug-09 07:52 083 4 gusting 11 28.3
2020-Aug-09 07:47 117 4 gusting 8 28.3
2020-Aug-09 07:42 130 5 gusting 9 28.3
2020-Aug-09 07:37 104 3 gusting 9 28.3
2020-Aug-09 07:32 113 3 gusting 8 28.3
2020-Aug-09 07:27 077 4 gusting 8 28.3
2020-Aug-09 07:22 110 3 gusting 6 28.3
2020-Aug-09 07:17 083 3 gusting 6 28.3
2020-Aug-09 07:12 133 3 gusting 6 28.3
2020-Aug-09 07:07 115 3 gusting 7 28.3
2020-Aug-09 07:02 130 3 gusting 7 28.3
2020-Aug-09 06:57 115 4 gusting 8 28.3
2020-Aug-09 06:52 130 3 gusting 8 28.3
2020-Aug-09 06:47 115 3 gusting 7 28.3
2020-Aug-09 06:42 124 3 gusting 7 28.3
2020-Aug-09 06:37 104 4 gusting 11 28.3
2020-Aug-09 06:32 087 5 gusting 11 28.3
2020-Aug-09 06:27 108 5 gusting 10 28.3
2020-Aug-09 06:22 125 4 gusting 10 28.3
2020-Aug-09 06:17 117 4 gusting 10 28.3
2020-Aug-09 06:12 111 4 gusting 9 28.3
2020-Aug-09 06:07 093 4 gusting 9 28.9
2020-Aug-09 06:02 127 4 gusting 9 28.9
2020-Aug-09 05:57 082 4 gusting 9 28.9
2020-Aug-09 05:51 124 4 gusting 9 28.3
2020-Aug-09 05:46 120 5 gusting 10 28.9
2020-Aug-09 05:41 116 5 gusting 10 28.9
2020-Aug-09 05:36 102 6 gusting 10 28.9
2020-Aug-09 05:31 076 6 gusting 13 28.9
2020-Aug-09 05:26 101 6 gusting 13 28.9
2020-Aug-09 05:21 088 5 gusting 10 28.9
2020-Aug-09 05:16 092 4 gusting 9 28.3
2020-Aug-09 05:11 085 4 gusting 9 28.3
2020-Aug-09 05:06 122 5 gusting 11 28.3
2020-Aug-09 05:01 126 4 gusting 11 28.3
2020-Aug-09 04:56 086 3 gusting 9 27.8
2020-Aug-09 04:51 117 2 gusting 6 27.8
2020-Aug-09 04:47 131 2 gusting 6 27.8
2020-Aug-09 04:41 133 2 gusting 5 27.2
2020-Aug-09 04:36 134 3 gusting 9 27.2
2020-Aug-09 04:31 141 6 gusting 13 27.8
2020-Aug-09 04:26 096 9 gusting 18 27.8
2020-Aug-09 04:21 141 8 gusting 18 28.3
2020-Aug-09 04:16 050 6 gusting 14 28.9
2020-Aug-09 04:11 141 5 gusting 10 28.9
2020-Aug-09 04:06 078 5 gusting 12 28.9
2020-Aug-09 04:01 070 5 gusting 12 28.9
2020-Aug-09 03:56 086 4 gusting 9 28.9
2020-Aug-09 03:51 049 5 gusting 14 28.9
2020-Aug-09 03:46 106 6 gusting 14 28.9
2020-Aug-09 03:41 110 5 gusting 13 28.9
2020-Aug-09 03:36 103 4 gusting 13 28.9
2020-Aug-09 03:31 103 5 gusting 10 28.9
2020-Aug-09 03:26 117 6 gusting 13 28.9
2020-Aug-09 03:21 120 6 gusting 13 28.9
2020-Aug-09 03:16 103 4 gusting 13 28.9
2020-Aug-09 03:11 131 5 gusting 11 28.9
2020-Aug-09 03:06 081 6 gusting 12 28.9
2020-Aug-09 03:01 129 6 gusting 12 28.9
2020-Aug-09 02:56 093 6 gusting 13 28.9
2020-Aug-09 02:51 082 6 gusting 14 28.9
2020-Aug-09 02:46 098 6 gusting 14 28.9
2020-Aug-09 02:41 091 5 gusting 13 28.9
2020-Aug-09 02:36 089 5 gusting 11 28.9
2020-Aug-09 02:31 074 6 gusting 11 28.9
2020-Aug-09 02:26 066 6 gusting 11 28.9
2020-Aug-09 02:21 071 6 gusting 16 28.9
2020-Aug-09 02:16 063 6 gusting 16 28.9
2020-Aug-09 02:11 077 6 gusting 10 28.9
2020-Aug-09 02:06 061 5 gusting 10 28.9
2020-Aug-09 02:01 105 4 gusting 9 28.9
2020-Aug-09 01:56 124 4 gusting 8 28.9
2020-Aug-09 01:51 072 4 gusting 9 28.9
2020-Aug-09 01:46 068 4 gusting 9 28.9
2020-Aug-09 01:41 105 4 gusting 12 28.9
2020-Aug-09 01:36 068 3 gusting 12 28.9
2020-Aug-09 01:31 105 4 gusting 11 28.9
2020-Aug-09 01:26 115 4 gusting 11 28.9
2020-Aug-09 01:21 125 5 gusting 10 28.9
2020-Aug-09 01:16 129 5 gusting 11 29.4
2020-Aug-09 01:11 087 5 gusting 11 29.4
2020-Aug-09 01:06 125 5 gusting 11 29.4
2020-Aug-09 01:00 089 5 gusting 11 29.4
2020-Aug-09 00:55 137 5 gusting 12 29.4
2020-Aug-09 00:50 117 6 gusting 12 29.4
2020-Aug-09 00:45 075 6 gusting 14 29.4
2020-Aug-09 00:40 117 6 gusting 14 29.4
2020-Aug-09 00:35 093 6 gusting 13 29.4
2020-Aug-09 00:30 083 6 gusting 13 29.4
2020-Aug-09 00:25 091 6 gusting 12 29.4
2020-Aug-09 00:20 093 5 gusting 10 28.9
2020-Aug-09 00:15 079 5 gusting 10 28.9
2020-Aug-09 00:10 058 4 gusting 10 28.9
2020-Aug-09 00:05 131 4 gusting 9 28.9
2020-Aug-09 00:00 120 4 gusting 9 29.4
2020-Aug-08 23:55 123 3 gusting 9 29.4
2020-Aug-08 23:50 096 4 gusting 9 29.4
2020-Aug-08 23:45 088 4 gusting 8 29.4
2020-Aug-08 23:40 121 6 gusting 12 29.4
2020-Aug-08 23:35 123 6 gusting 13 29.4
2020-Aug-08 23:30 102 6 gusting 13 29.4
2020-Aug-08 23:25 086 6 gusting 11 30.0
2020-Aug-08 23:20 060 6 gusting 11 30.0
2020-Aug-08 23:15 134 6 gusting 12 30.0
2020-Aug-08 23:10 089 6 gusting 12 30.0
2020-Aug-08 23:05 093 6 gusting 12 30.0
2020-Aug-08 23:00 113 6 gusting 11 30.0
2020-Aug-08 22:55 101 6 gusting 11 30.0
2020-Aug-08 22:50 042 7 gusting 13 30.0
2020-Aug-08 22:45 047 7 gusting 13 30.0
2020-Aug-08 22:40 079 6 gusting 12 30.0
2020-Aug-08 22:35 108 6 gusting 12 30.0
2020-Aug-08 22:30 057 6 gusting 12 30.0
2020-Aug-08 22:25 108 6 gusting 10 30.0
2020-Aug-08 22:20 103 6 gusting 11 30.0
2020-Aug-08 22:15 077 6 gusting 14 30.6
2020-Aug-08 22:10 058 7 gusting 14 30.6
2020-Aug-08 22:05 051 7 gusting 13 30.0
2020-Aug-08 22:00 069 7 gusting 12 30.0
2020-Aug-08 21:55 096 6 gusting 12 30.0
2020-Aug-08 21:50 041 6 gusting 13 30.6
2020-Aug-08 21:45 090 6 gusting 13 30.6
2020-Aug-08 21:40 111 7 gusting 17 30.6
2020-Aug-08 21:35 079 7 gusting 17 30.6
2020-Aug-08 21:30 093 7 gusting 12 30.6
2020-Aug-08 21:25 056 7 gusting 12 30.0
2020-Aug-08 21:20 070 6 gusting 13 30.6
2020-Aug-08 21:15 065 7 gusting 13 30.0
2020-Aug-08 21:10 072 7 gusting 13 30.6
2020-Aug-08 21:00 060 6 gusting 11 30.6
2020-Aug-08 20:50 075 6 gusting 12 30.6
2020-Aug-08 20:40 064 6 gusting 12 30.6
2020-Aug-08 20:35 075 6 gusting 13 30.6
2020-Aug-08 20:30 136 6 gusting 13 30.6
2020-Aug-08 20:25 109 6 gusting 13 30.6
2020-Aug-08 20:20 068 6 gusting 10 30.6
2020-Aug-08 20:15 124 5 gusting 11 30.6
2020-Aug-08 20:10 054 5 gusting 13 30.6
2020-Aug-08 20:05 073 5 gusting 13 30.6
2020-Aug-08 20:00 101 5 gusting 9 30.6
2020-Aug-08 19:55 094 5 gusting 8 30.0
2020-Aug-08 19:50 079 4 gusting 7 29.4
2020-Aug-08 19:45 128 4 gusting 7 29.4
2020-Aug-08 19:39 115 4 gusting 6 28.9
2020-Aug-08 19:34 122 4 gusting 7 28.9
2020-Aug-08 19:29 112 5 gusting 8 28.9
2020-Aug-08 19:24 130 5 gusting 9 28.9
2020-Aug-08 19:19 084 5 gusting 9 28.9
2020-Aug-08 19:15 098 5 gusting 9 28.9
2020-Aug-08 19:09 124 5 gusting 11 29.4
2020-Aug-08 19:04 060 5 gusting 11 29.4
2020-Aug-08 18:59 072 6 gusting 13 30.0
2020-Aug-08 18:54 122 6 gusting 13 29.4
2020-Aug-08 18:49 091 6 gusting 13 29.4
2020-Aug-08 18:44 069 6 gusting 13 29.4
2020-Aug-08 18:39 117 6 gusting 14 29.4
2020-Aug-08 18:34 079 8 gusting 16 29.4
2020-Aug-08 18:29 109 8 gusting 16 29.4
2020-Aug-08 18:24 116 7 gusting 15 29.4
2020-Aug-08 18:19 114 8 gusting 15 29.4
2020-Aug-08 18:14 123 6 gusting 13 28.9
2020-Aug-08 18:09 111 6 gusting 13 28.3
2020-Aug-08 18:04 113 6 gusting 13 27.8
2020-Aug-08 17:59 091 6 gusting 13 27.8
2020-Aug-08 17:54 120 6 gusting 12 27.2
2020-Aug-08 17:49 110 5 gusting 12 27.2
2020-Aug-08 17:44 133 4 gusting 8 26.7
2020-Aug-08 17:39 104 6 gusting 14 26.1
2020-Aug-08 17:34 129 7 gusting 14 26.1
2020-Aug-08 17:29 120 9 gusting 17 26.1
2020-Aug-08 17:24 122 11 gusting 19 26.7
2020-Aug-08 17:19 154 13 gusting 22 27.2
2020-Aug-08 17:14 127 12 gusting 22 28.3
2020-Aug-08 17:09 122 8 gusting 20 28.9
2020-Aug-08 17:04 126 7 gusting 14 29.4
2020-Aug-08 16:59 069 7 gusting 14 29.4
2020-Aug-08 16:54 110 7 gusting 15 29.4
2020-Aug-08 16:49 098 7 gusting 15 29.4
2020-Aug-08 16:44 098 6 gusting 13 29.4
2020-Aug-08 16:39 136 6 gusting 12 29.4
2020-Aug-08 16:34 082 6 gusting 13 29.4
2020-Aug-08 16:29 099 8 gusting 14 28.9
2020-Aug-08 16:24 103 8 gusting 14 28.9
2020-Aug-08 16:19 112 6 gusting 13 28.9
2020-Aug-08 16:14 107 6 gusting 10 29.4
2020-Aug-08 16:09 108 6 gusting 11 29.4
2020-Aug-08 16:04 126 6 gusting 12 29.4
2020-Aug-08 15:59 108 6 gusting 12 29.4
2020-Aug-08 15:54 122 6 gusting 11 29.4
2020-Aug-08 15:49 095 6 gusting 13 29.4
2020-Aug-08 15:44 091 6 gusting 14 28.9
2020-Aug-08 15:39 079 6 gusting 14 28.9
2020-Aug-08 15:34 125 5 gusting 13 28.9
2020-Aug-08 15:29 106 6 gusting 13 28.3
2020-Aug-08 15:24 115 6 gusting 13 28.3
2020-Aug-08 15:19 079 6 gusting 13 28.3
2020-Aug-08 15:14 098 5 gusting 11 28.3
2020-Aug-08 15:09 114 4 gusting 11 28.3
2020-Aug-08 15:04 083 3 gusting 7 28.3
2020-Aug-08 14:59 131 4 gusting 9 27.8
2020-Aug-08 14:54 118 5 gusting 9 27.8
2020-Aug-08 14:49 076 4 gusting 10 27.8
2020-Aug-08 14:44 091 4 gusting 10 27.8
2020-Aug-08 14:39 127 4 gusting 7 27.2
2020-Aug-08 14:34 112 4 gusting 8 27.2
2020-Aug-08 14:29 122 5 gusting 10 27.2
2020-Aug-08 14:24 110 5 gusting 10 27.2
2020-Aug-08 14:19 113 5 gusting 8 27.2
2020-Aug-08 14:14 134 6 gusting 11 27.2
2020-Aug-08 14:09 135 6 gusting 11 27.8
2020-Aug-08 14:04 139 4 gusting 9 27.2
2020-Aug-08 13:59 131 3 gusting 9 27.2
2020-Aug-08 13:54 123 3 gusting 6 26.7
2020-Aug-08 13:49 108 2 gusting 5 26.7
2020-Aug-08 13:44 117 2 gusting 6 26.1
2020-Aug-08 13:39 098 2 gusting 6 26.1
2020-Aug-08 13:34 104 3 gusting 6 25.6
2020-Aug-08 13:29 098 4 gusting 10 25.6
2020-Aug-08 13:24 105 6 gusting 13 26.1
2020-Aug-08 13:18 097 6 gusting 15 26.1
2020-Aug-08 13:13 110 6 gusting 15 26.1
2020-Aug-08 13:08 031 6 gusting 10 26.7
2020-Aug-08 13:03 092 6 gusting 10 26.7
2020-Aug-08 12:58 095 5 gusting 14 26.7
2020-Aug-08 12:53 060 5 gusting 14 26.7
2020-Aug-08 12:48 111 6 gusting 12 26.7
2020-Aug-08 12:43 101 5 gusting 12 26.7
2020-Aug-08 12:38 115 5 gusting 9 26.7
2020-Aug-08 12:33 094 6 gusting 9 26.7
2020-Aug-08 12:28 103 4 gusting 9 26.1
2020-Aug-08 12:23 117 2 gusting 6 26.1
2020-Aug-08 12:18 112 2 gusting 5 25.6
2020-Aug-08 12:13 129 2 gusting 5 25.6
2020-Aug-08 12:08 117 2 gusting 5 25.6
2020-Aug-08 12:03 132 3 gusting 6 25.6
2020-Aug-08 11:58 122 4 gusting 6 25.6
2020-Aug-08 11:53 110 5 gusting 17 25.6
2020-Aug-08 11:48 090 8 gusting 17 25.6
2020-Aug-08 11:43 117 11 gusting 18 25.6
2020-Aug-08 11:38 088 11 gusting 18 26.1
2020-Aug-08 11:33 115 8 gusting 18 26.7
2020-Aug-08 11:28 117 6 gusting 14 27.2
2020-Aug-08 11:23 120 5 gusting 12 26.7
2020-Aug-08 11:18 106 4 gusting 12 26.7
2020-Aug-08 11:13 128 2 gusting 6 26.7
2020-Aug-08 11:08 136 2 gusting 6 26.7
2020-Aug-08 11:03 120 3 gusting 6 26.1
2020-Aug-08 10:58 122 4 gusting 10 26.1
2020-Aug-08 10:53 104 6 gusting 13 26.7
2020-Aug-08 10:48 115 6 gusting 13 27.2
2020-Aug-08 10:43 117 6 gusting 12 27.2
2020-Aug-08 10:38 123 6 gusting 12 27.2
2020-Aug-08 10:33 119 5 gusting 9 27.2
2020-Aug-08 10:28 113 5 gusting 9 27.2
2020-Aug-08 10:23 118 5 gusting 8 27.2
2020-Aug-08 10:17 113 4 gusting 11 27.2
2020-Aug-08 10:12 096 4 gusting 11 27.2
2020-Aug-08 10:08 123 6 gusting 11 27.2
2020-Aug-08 10:02 108 6 gusting 11 27.2
2020-Aug-08 09:57 128 6 gusting 10 27.2
2020-Aug-08 09:52 092 5 gusting 9 27.2
2020-Aug-08 09:47 125 5 gusting 10 27.2
2020-Aug-08 09:42 128 5 gusting 10 27.2
2020-Aug-08 09:37 125 6 gusting 11 27.2
2020-Aug-08 09:32 107 6 gusting 11 27.2
2020-Aug-08 09:27 075 5 gusting 10 27.2
2020-Aug-08 09:22 081 5 gusting 9 27.2
2020-Aug-08 09:17 112 5 gusting 9 27.2
2020-Aug-08 09:12 129 5 gusting 8 27.2
2020-Aug-08 09:07 112 4 gusting 8 26.7
2020-Aug-08 09:02 111 3 gusting 6 26.7
2020-Aug-08 08:57 115 3 gusting 6 26.7
2020-Aug-08 08:52 129 2 gusting 5 26.7
2020-Aug-08 08:47 114 2 gusting 5 26.7
2020-Aug-08 08:42 130 2 gusting 5 26.7
2020-Aug-08 08:37 093 3 gusting 6 26.7
2020-Aug-08 08:32 105 4 gusting 8 26.7
2020-Aug-08 08:27 112 4 gusting 9 26.7
2020-Aug-08 08:22 122 6 gusting 9 26.1
2020-Aug-08 08:17 108 6 gusting 12 26.1
2020-Aug-08 08:12 113 9 gusting 18 26.7
2020-Aug-08 08:07 094 7 gusting 18 26.7
2020-Aug-08 08:02 126 5 gusting 10 27.8